• MPC Preparation (Info)

  • MPEC 2000-X07 : 2000 WM107

    The following Minor Planet Electronic Circular may be linked-to from your own Web pages, but must not otherwise be redistributed electronically.

    A form allowing access to any MPEC is at the bottom of this page.


    Read MPEC 2000-X06 Read MPEC 2000-X08


    M.P.E.C. 2000-X07                                Issued 2000 Dec. 1, 18:39 UT
    
         The Minor Planet Electronic Circulars contain information on unusual
             minor planets and routine data on comets.  They are published
       on behalf of Commission 20 of the International Astronomical Union by the
              Minor Planet Center, Smithsonian Astrophysical Observatory,
                              Cambridge, MA 02138, U.S.A.
    
                 Prepared using the Tamkin Foundation Computer Network
    
                                  MPC@CFA.HARVARD.EDU
              URL http://cfa-www.harvard.edu/iau/mpc.html  ISSN 1523-6714
    
                                      2000 WM107
    
    Observations:
         K00WA7M* C2000 11 29.31235 05 31 15.56 +24 13 42.6          18.8        704
         K00WA7M  C2000 11 29.32893 05 31 13.01 +24 14 16.3          19.3        704
         K00WA7M  C2000 11 29.34443 05 31 10.67 +24 14 47.7          18.7        704
         K00WA7M  C2000 11 29.37636 05 31 05.77 +24 15 51.8          19.3        704
         K00WA7M  C2000 11 30.29330 05 28 52.32 +24 46 17.6          18.8        704
         K00WA7M  C2000 11 30.30940 05 28 49.82 +24 46 48.3          19.1        704
         K00WA7M  C2000 11 30.32455 05 28 47.50 +24 47 17.6          19.0        704
         K00WA7M  C2000 11 30.33992 05 28 45.19 +24 47 48.3          19.5        704
         K00WA7M  C2000 11 30.34551 05 28 44.25 +24 47 59.4                      711
         K00WA7M  C2000 11 30.35051 05 28 43.46 +24 48 08.9                      711
         K00WA7M  C2000 11 30.35494 05 28 42.85 +24 48 17.2          19.0        704
         K00WA7M  C2000 11 30.35560 05 28 42.69 +24 48 19.1                      711
         K00WA7M  C2000 11 30.99814 05 27 09.43 +25 08 59.0          18.3 R      046
         K00WA7M  C2000 11 30.99978 05 27 09.20 +25 09 01.8                      046
         K00WA7M  C2000 12 01.00087 05 27 09.00 +25 09 04.3                      046
         K00WA7M  C2000 12 01.00191 05 27 08.85 +25 09 06.1                      046
         K00WA7M IC2000 12 01.35572 05 26 17.39 +25 20 24.8                      711
         K00WA7M  C2000 12 01.36096 05 26 16.60 +25 20 36.6                      711
         K00WA7M  C2000 12 01.36616 05 26 15.79 +25 20 45.4                      711
    
    Observer details:
    046 Klet.  Observers M. Tichy, M. Kocer.  0.57-m f/5.2 reflector + CCD.
    704 Lincoln Laboratory ETS, New Mexico.  Observers M. Blythe, F. Shelly,
        M. Bezpalko, M. Elowitz, R. Huber, L. Manguso.  Measurers J. Stuart,
        R. Sayer, J. B. Evans, H. Viggh.  1.0-m f/2.15 reflector + CCD.
    711 McDonald Observatory.  Observer J. G. Ries.  0.76-m reflector + CCD.
    
    Orbital elements:
    2000 WM107
    Epoch 2000 Nov. 12.0 TT = JDT 2451860.5                 Spahr
    M  16.09041              (2000.0)            P               Q
    n   0.23979696     Peri.  280.97230     +0.93785055     +0.13681901
    a   2.5659032      Node    71.77056     +0.03158583     +0.88153819
    e   0.6095398      Incl.   19.62018     -0.34559901     +0.45185283
    P   4.11           H   18.9           G   0.15
    From 19 observations 2000 Nov. 29-Dec. 1.
    
    Ephemeris:
    2000 WM107               a,e,i = 2.57, 0.61, 20                  q = 1.0019
    Date    TT    R. A. (2000) Decl.     Delta      r     Elong.  Phase     V
    2000 11 22    05 49.05   +19 41.2    0.447    1.399   152.3    19.1    18.9
    2000 12 02    05 24.75   +25 40.6    0.501    1.480   167.8     8.1    18.8
    2000 12 12    05 02.49   +29 57.8    0.581    1.562   172.3     4.8    19.1
    2000 12 22    04 45.56   +32 43.7    0.683    1.644   160.8    11.3    19.9
    2001 01 01    04 35.23   +34 24.6    0.807    1.727   149.3    16.9    20.5
    2001 01 11    04 31.26   +35 25.6    0.948    1.808   138.9    21.0    21.1
    2001 01 21    04 32.57   +36 03.7    1.104    1.889   129.5    23.7    21.6
    2001 01 31    04 38.08   +36 28.6    1.272    1.969   120.9    25.4    22.1
    
    Timothy B. Spahr             (C) Copyright 2000 MPC           M.P.E.C. 2000-X07
    

    Read MPEC 2000-X06 Read MPEC 2000-X08


    MPEC number:

    Enter an MPEC number in one of the following forms:

    • 1997-B01 (the full form)
    • J97B01 (the packed version of the full form)
    • B01 (the abbreviated form)